Golden Valley, AZ

10:56 PM MST on August 28, 2016 (GMT -0700)
Kingman

Weather History for KIGM - January, 2013

Change the Weather History Date:

Sunday, January 20, 2013

  Actual Average Record
Temperature  
Mean Temperature 42 °F 44 °F  
Max Temperature 60 °F 57 °F 75 °F (1971)
Min Temperature 23 °F 31 °F 12 °F (1937)
Degree Days  
Heating Degree Days 23 21  
Month to date heating degree days 586 433  
Since 1 July heating degree days 1667 1682  
Cooling Degree Days 0 0  
Month to date cooling degree days 0 0  
Year to date cooling degree days 0 0  
Moisture  
Dew Point 13 °F    
Average Humidity 38    
Maximum Humidity 60    
Minimum Humidity 15    
Precipitation  
Precipitation 0.00 in 0.03 in 1.08 in (1954)
Month to date precipitation 0.05 0.63  
Year to date precipitation 0.05 0.63  
Sea Level Pressure  
Sea Level Pressure 30.17 in    
Wind  
Wind Speed 6 mph (ENE)    
Max Wind Speed 14 mph    
Max Gust Speed 18 mph    
Visibility 10 miles    
Events      
T = Trace of Precipitation, MM = Missing Value Source: NWS Daily Summary

Daily Weather History Graph

Daily Weather History Graph

Search for Another Location

Airport or City:

Trip Planner

Search our weather history database for the weather conditions in past years. The results will help you decide how hot, cold, wet, or windy it might be!

Date:

Astronomy

Jan. 20, 2013 Rise Set
Actual Time 7:41 AM MST 5:52 PM MST
Civil Twilight 7:14 AM MST 6:19 PM MST
Nautical Twilight 6:43 AM MST 6:50 PM MST
Astronomical Twilight 6:13 AM MST 7:20 PM MST
Moon 12:55 PM MST (1/20) 2:19 AM MST (1/20)
Length of Visible Light 11h 04m
Length of Day
10h 10m
Waxing Gibbous, 67% of the Moon is Illuminated
Jan 20
Waxing Gibbous
Jan 26
Full
Feb 3
Last Quarter
Feb 10
New
Feb 17
First Quarter

Hourly Weather History & Observations

Time (MST) Temp. Windchill Dew Point Humidity Pressure Visibility Wind Dir Wind Speed Gust Speed Precip Events Conditions
12:51 AM 28.9 °F 25.2 °F 14.0 °F 54% 30.19 in 10.0 mi ESE 3.5 mph - N/A   Clear
1:51 AM 27.0 °F - 14.0 °F 58% 30.20 in 10.0 mi Calm Calm - N/A   Clear
2:51 AM 28.9 °F 25.2 °F 12.9 °F 51% 30.19 in 10.0 mi ENE 3.5 mph - N/A   Clear
3:51 AM 25.0 °F 20.7 °F 12.9 °F 60% 30.19 in 10.0 mi SE 3.5 mph - N/A   Clear
4:51 AM 26.1 °F 20.5 °F 12.9 °F 58% 30.19 in 10.0 mi ESE 4.6 mph - N/A   Clear
5:51 AM 25.0 °F - 12.9 °F 60% 30.20 in 10.0 mi Calm Calm - N/A   Clear
6:51 AM 25.0 °F 20.7 °F 12.0 °F 58% 30.22 in 10.0 mi East 3.5 mph - N/A   Clear
7:51 AM 26.1 °F 21.9 °F 12.9 °F 58% 30.22 in 10.0 mi Variable 3.5 mph - N/A   Clear
8:51 AM 35.6 °F - 17.6 °F 48% 30.25 in 10.0 mi Calm Calm - N/A   Clear
9:51 AM 45.0 °F 43.5 °F 14.0 °F 29% 30.21 in 10.0 mi ENE 3.5 mph - N/A   Clear
10:51 AM 48.0 °F - 15.1 °F 27% 30.22 in 10.0 mi NNE 5.8 mph - N/A   Clear
11:51 AM 53.1 °F - 15.1 °F 22% 30.19 in 10.0 mi North 4.6 mph - N/A   Clear
12:51 PM 57.0 °F - 12.9 °F 18% 30.14 in 10.0 mi Variable 5.8 mph - N/A   Clear
1:51 PM 57.9 °F - 12.0 °F 16% 30.12 in 10.0 mi NE 8.1 mph - N/A   Clear
2:51 PM 59.0 °F - 12.0 °F 16% 30.09 in 10.0 mi NE 9.2 mph - N/A   Clear
3:51 PM 59.0 °F - 12.2 °F 16% 30.16 in 10.0 mi NE 6.9 mph - N/A   Clear
4:51 PM 57.9 °F - 10.0 °F 15% 30.10 in 10.0 mi NNE 9.2 mph - N/A   Clear
5:51 PM 48.9 °F - 10.9 °F 22% 30.12 in 10.0 mi ENE 6.9 mph - N/A   Clear
6:51 PM 39.9 °F 33.9 °F 10.9 °F 31% 30.14 in 10.0 mi East 9.2 mph - N/A   Clear
7:51 PM 37.4 °F 30.3 °F 10.4 °F 33% 30.17 in 10.0 mi ESE 10.4 mph - N/A   Clear
8:51 PM 39.0 °F 31.8 °F 10.9 °F 32% 30.14 in 10.0 mi East 11.5 mph - N/A   Clear
9:51 PM 37.9 °F 29.6 °F 12.0 °F 35% 30.13 in 10.0 mi ESE 13.8 mph - N/A   Clear
10:51 PM 36.0 °F 30.3 °F 12.0 °F 37% 30.14 in 10.0 mi East 6.9 mph - N/A   Clear
11:51 PM 34.0 °F 28.8 °F 12.0 °F 40% 30.14 in 10.0 mi East 5.8 mph - N/A   Clear